This is the latest recevied weather packets stored in our database for station/object KO4LFZ. If no packets are shown the sender has not sent any weather packets the latest 10 day(s).
| Time | Temp. | Humidity | Pressure | Rain* | Wind** | Luminosity | Snow |
|---|---|---|---|---|---|---|---|
| 1777753171 | 19.44° C | 36% | 1016.8 hPa | 0 mm | - | 246 W/m² | - |
| 1777752867 | 18.33° C | 36% | 1016.6 hPa | 0 mm | - | 751 W/m² | - |
| 1777752564 | 17.78° C | 41% | 1016.6 hPa | 0 mm | - | 231 W/m² | - |
| 1777752260 | 18.89° C | 40% | 1016.6 hPa | 0 mm | - | 174 W/m² | - |
| 1777751958 | 18.89° C | 38% | 1016.6 hPa | 0 mm | - | 700 W/m² | - |
| 1777751654 | 18.89° C | 40% | 1016.5 hPa | 0 mm | - | 701 W/m² | - |
| 1777751351 | 18.89° C | 38% | 1016.8 hPa | 0 mm | - | 744 W/m² | - |
| 1777751048 | 19.44° C | 39% | 1016.6 hPa | 0 mm | - | 516 W/m² | - |
| 1777750744 | 18.89° C | 40% | 1016.3 hPa | 0 mm | - | 524 W/m² | - |
| 1777750441 | 18.89° C | 40% | 1016.5 hPa | 0 mm | - | 753 W/m² | - |
| 1777750136 | 17.78° C | 41% | 1016.7 hPa | 0 mm | - | 760 W/m² | - |
| 1777749834 | 18.89° C | 39% | 1016.8 hPa | 0 mm | - | 280 W/m² | - |
| 1777749530 | 20° C | 37% | 1016.9 hPa | 0 mm | - | 865 W/m² | - |
| 1777749229 | 19.44° C | 38% | 1016.6 hPa | 0 mm | - | 425 W/m² | - |
| 1777748926 | 18.33° C | 39% | 1016.6 hPa | 0 mm | - | 888 W/m² | - |
| 1777748623 | 18.33° C | 41% | 1016.9 hPa | 0 mm | - | 275 W/m² | - |
| 1777748318 | 18.89° C | 41% | 1016.7 hPa | 0 mm | - | 324 W/m² | - |
| 1777748013 | 18.33° C | 40% | 1016.7 hPa | 0 mm | - | 866 W/m² | - |
| 1777747681 | 19.44° C | 35% | 1016.7 hPa | 0 mm | - | 346 W/m² | - |
| 1777747377 | 19.44° C | 35% | 1016.7 hPa | 0 mm | - | 346 W/m² | - |
| 1777747074 | 19.44° C | 35% | 1016.4 hPa | 0 mm | - | 865 W/m² | - |
| 1777746770 | 18.89° C | 37% | 1016.8 hPa | 0 mm | - | 263 W/m² | - |
| 1777746465 | 19.44° C | 39% | 1016.5 hPa | 0 mm | - | 370 W/m² | - |
| 1777746161 | 19.44° C | 40% | 1016.8 hPa | 0 mm | - | 241 W/m² | - |
| 1777745857 | 19.44° C | 37% | 1016.8 hPa | 0 mm | - | 659 W/m² | - |
* Rain latest hour (hover to see other rain measurements)
** Current wind speed in m/s (hover to see current wind gust speed)